Regional Weather Roundup
Issued by NWS

Home | Current Version | Previous Version | Text Only | Print | Product List | Glossary Off
Versions: 1 2 3 4 5 6 7 8 9 10 11 12 13 14 15 16 17 18 19 20 21 22 23 24 25 26 27 28 29 30 31 32 33 34 35 36 37 38 39 40 41 42 43 44 45 46 47 48 49 50

000
ASUS43 KLOT 010106
RWRIL

ILLINOIS REGIONAL WEATHER ROUNDUP
NATIONAL WEATHER SERVICE CHICAGO/ROMEOVILLE IL
700 PM CST SAT FEB 28 2015

NOTE: "FAIR" INDICATES FEW OR NO CLOUDS BELOW 12,000 FEET WITH NO
SIGNIFICANT WEATHER AND/OR OBSTRUCTIONS TO VISIBILITY.

* THESE STATIONS ARE NOT UNDER NWS QUALITY CONTROL. THEY ALSO MAY NOT
  REPORT WEATHER SUCH AS PRECIPITATION OR FOG.

ILZ001-002-007-009-015-016-024-010200-
NORTHWEST ILLINOIS

CITY           SKY/WX    TMP DP  RH WIND       PRES   REMARKS
MOLINE         CLOUDY    17  10  74 E8        30.49F WCI   7
STERLING*      CLOUDY    16  12  86 E7        30.51S WCI   6
SAVANNA*       LGT SNOW  15  10  80 SE5       30.52S WCI   8
$$

ILZ003-004-008-010-011-017-018-010200-
NORTH CENTRAL ILLINOIS

CITY           SKY/WX    TMP DP  RH WIND       PRES   REMARKS
ROCKFORD       LGT SNOW  17   6  62 SE5       30.52F WCI  10
FREEPORT*      CLOUDY    14   7  73 SE5       30.52S WCI   7
ROCHELLE*      LGT SNOW  16  12  84 SE8       30.51F WCI   5
DE KALB*       LGT SNOW  15  10  79 SE6       30.51F WCI   7
PERU*          LGT SNOW  19  16  87 SE9       30.52S WCI   8
$$

ILZ005-006-012>014-019>023-010200-
NORTHEAST ILLINOIS

CITY           SKY/WX    TMP DP  RH WIND       PRES   REMARKS
CHICAGO-OHARE  CLOUDY    20   4  50 S8        30.53R WCI  10
CHICAGO-MIDWAY FLURRIES  21   9  59 S10       30.55R WCI  10
AURORA         LGT SNOW  19   9  65 SE9       30.53S WCI   8
LANSING*       FLURRIES  20  10  66 SE6       30.56R WCI  12
JOLIET*        FLURRIES  19   9  64 SE5       30.54S WCI  13
WAUKEGAN       CLOUDY    20   8  60 SE10      30.52R WCI   9
DUPAGE AIRPORT LGT SNOW  18   9  68 S8        30.52S WCI   8
KANKAKEE*      LGT SNOW  20  17  90 E8        30.54F WCI  10
WHEELING       CLOUDY    20   7  57 SE7       30.55R WCI  11
MORRIS*        LGT SNOW  19  14  81 SE8       30.53F WCI   9
ROMEOVILLE*    LGT SNOW  19  11  71 SE7       30.53F WCI  10
NORTHERLY ISL    N/A     21   7  54 S9          N/A  WCI  11
$$

LMZ740>746-010200-
SOUTHERN LAKE MICHIGAN

STATION/POSITION SKY/WX   TEMP    WIND        PRES    VSBY  WAVE
                          AIR SEA DIR/SP/G                  HT/PER
                          (F)     (DEG/KT/KT) (MB)    (MI)  (FT/S)
WAUKEGAN HARBOR            21     160/ 11/ 13   N/A
HARRISON CRIB              20     120/ 13/ 15   N/A
BURNHAM HARBOR             21     150/  7/ 11   N/A
CALUMET HARBOR             21     130/  6/  9 1033.0R
MICHIGAN CITY              20      70/  8/  9   N/A
$$

ILZ025>027-034>036-040-047-049-050-058-095>099-010200-
WEST-CENTRAL ILLINOIS

CITY           SKY/WX    TMP DP  RH WIND       PRES   REMARKS
QUINCY         LGT SNOW  20  17  88 SE7       30.45F FOG     WCI  11
GALESBURG*     LGT SNOW  19  17  91 SE3       30.47F
MACOMB*        LGT SNOW  20  19  95 SE5       30.50S WCI  14
JACKSONVILLE*  LGT SNOW  23  20  89 SE8       30.48F WCI  14
PITTSFIELD*    LGT SNOW  22  20  91 E5        30.47F WCI  16
$$

ILZ028>032-037-038-041>044-048-051>054-059>061-010200-
CENTRAL ILLINOIS

CITY           SKY/WX    TMP DP  RH WIND       PRES   REMARKS
PONTIAC        LGT SNOW  20  18  93 E9        30.53S WCI   9
BLOOMINGTON    LGT SNOW  20  18  92 SE7       30.51S FOG     WCI  11
DECATUR        LGT SNOW  21  18  88 E7        30.51R VSB 1   WCI  12
PEORIA         LGT SNOW  22  17  81 SE6       30.51S WCI  14
LACON*         MIX PCPN  19  15  86 E7        30.51F WCI   9
LINCOLN*       LGT SNOW  22  19  89 E5        30.54R WCI  16
SPRINGFIELD    LGT SNOW  22  18  85 SE10      30.50S VSB 1   WCI  11
TAYLORVILLE    LGT SNOW  21  19  93 E5        30.50S VSB 1   WCI  15
$$

ILZ033-039-045-046-055>057-062-063-010200-
EAST-CENTRAL ILLINOIS

CITY           SKY/WX    TMP DP  RH WIND       PRES   REMARKS
CHAMPAIGN      LGT SNOW  21  18  88 E8        30.51R VSB 3/4 WCI  11
DANVILLE*      LGT SNOW  21  18  90 SE7       30.50R WCI  12
RANTOUL*       LGT SNOW  23  20  90 SE7       30.52R WCI  14
MATTOON        SNOW      22  19  89 E3        30.49S VSB 1/2
PARIS*         LGT SNOW  23  22  94 CALM      30.52S
$$

ILZ079-100>102-010200-
SOUTHWEST ILLINOIS

CITY           SKY/WX    TMP DP  RH WIND       PRES   REMARKS
BELLEVILLE     LGT SNOW  25  25  99 E2        30.49S VSB 1
CAHOKIA*       LGT SNOW  26  24  92 CALM      30.50R VSB 3/4
SPARTA*        LGT SNOW  25  24  94 CALM      30.49F
$$

ILZ064>066-069>071-074>076-080>082-084>086-088>090-092>094-010200-
SOUTH-CENTRAL ILLINOIS

CITY           SKY/WX    TMP DP  RH WIND       PRES   REMARKS
CARBONDALE     CLOUDY    29  22  75 N7        30.49R WCI  22
CAIRO*         CLOUDY    35  22  57 N5        30.46S WCI  31
EFFINGHAM*     LGT SNOW  24  20  86 CALM      30.52S VSB 1
MARION         CLOUDY    32  21  64 N7        30.49S WCI  26
MT. VERNON     CLOUDY    27  21  80 CALM      30.51R
CENTRALIA*     LGT SNOW  26  24  91 CALM      30.49R
SALEM*         LGT SNOW  27  24  89 CALM      30.50R VSB 1
METROPOLIS*    CLOUDY    34  21  59 N3        30.46R
$$

ILZ067-068-072-073-078-083-087-091-010200-
SOUTHEAST ILLINOIS

CITY           SKY/WX    TMP DP  RH WIND       PRES   REMARKS
LAWRENCEVILLE  LGT SNOW  26  24  92 NE8       30.52R VSB 3/4 WCI  18
FLORA*         LGT SNOW  25  24  96 E3        30.52R VSB 1
FAIRFIELD*     LGT SNOW  27  25  91 CALM      30.51R
HARRISBURG*    CLOUDY    32  20  62 NE5       30.50R WCI  27
ROBINSON*      LGT SNOW  25  24  96 E5        30.53R VSB 1   WCI  20
CARMI*         CLOUDY    33  25  73 N6        30.48S WCI  28
$$

ABBREVIATIONS USED IN REMARKS
   TC - TEMPERATURE IN CELSIUS
  WCI - WIND CHILL INDEX
   HX - HEAT INDEX
  VSB - VISIBILITY
$$



USA.gov is the U.S. government's official web portal to all federal, state and local government web resources and services.